Overview Statistics Trail Chart Weather Telemetry Raw packets
 

This is the latest recevied weather packets stored in our database for station/object OE5RBO. If no packets are shown the sender has not sent any weather packets the latest 10 day(s).

<< 11 12 13 14 15 16 17 >>
Time Temp. Humidity Pressure Rain* Wind** Luminosity Snow
1788441899 27.22° C 54% 1021.3 hPa 0 mm - - -
1788441298 26.67° C 54% 1021.7 hPa 0 mm - - -
1788440698 26.11° C 57% 1021.6 hPa 0 mm - - -
1788440098 25.56° C 58% 1022 hPa 0 mm - - -
1788439498 25° C 61% 1021.9 hPa 0 mm - - -
1788438897 25° C 59% 1022 hPa 0 mm - - -
1788438297 25° C 59% 1022.1 hPa 0 mm - - -
1788437096 25° C 59% 1022.1 hPa 0 mm - - -
1788435896 25.56° C 60% 1022.1 hPa 0 mm - - -
1788435295 25° C 59% 1022 hPa 0 mm - - -
1788434694 25.56° C 58% 1022.2 hPa 0 mm - - -
1788434094 25° C 62% 1022.3 hPa 0 mm - - -
1788433494 24.44° C 62% 1022.2 hPa 0 mm - - -
1788432293 23.89° C 61% 1022.3 hPa 0 mm - - -
1788431693 24.44° C 60% 1022.3 hPa 0 mm - - -
1788431093 23.89° C 66% 1022.3 hPa 0 mm - - -
1788430492 23.33° C 65% 1022.7 hPa 0 mm - - -
1788430157 23.89° C 65% 1022.7 hPa 0 mm - - -
1788429892 23.89° C 65% 1022.7 hPa 0 mm - - -
1788429291 23.33° C 67% 1022.6 hPa 0 mm - - -
1788428091 23.33° C 67% 1022.9 hPa 0 mm - - -
1788427490 23.33° C 66% 1022.9 hPa 0 mm - - -
1788426890 24.44° C 66% 1022.9 hPa 0 mm - - -
1788425689 22.78° C 69% 1023 hPa 0 mm - - -
1788425089 22.22° C 72% 1023 hPa 0 mm - - -

* Rain since midnight (hover to see other rain measurements)
** Current wind speed in m/s (hover to see current wind gust speed)